Torna al catalogo

QIANFAN-238

AttivoComunicazioniPO
NORAD 69867·PAYLOAD·🇨🇳 China

Lanciato Jul 5, 2026 da Wenchang Space Launch Site

Loading…

Prossimi Passaggi (prossime 24 ore)

TLE

AggiornatoSource: Space-Track

Epoca: Sep 14, 2026, 12:27 UTC

1 69867U 26155V   26257.51922952 -.01802144  00000-0 -28650+1 0  9995
2 69867  89.0081  54.2967 0028767  30.2600 330.0206 13.53481013  9932

Traccia QIANFAN-238 in tempo reale con AllMySat

Download on the App Store